Location: Bluewater Bay
(33.8500°S, 25.4667°E)
Time: 20:18:12
(UTC+00:00)

Daily predictions for brighter satellites

Satellite Brightness Start Highest point End
(mag) Time Altitude Azimuth Time Altitude Azimuth Time Altitude Azimuth
AQUARIUS 4.2 16:35:06 10° SSE 16:39:41 81° ENE 16:44:12 10° N
Cosmos 2237 Rocket 3.6 16:36:15 10° NW 16:41:36 43° WSW 16:47:04 10° S
Cosmos 1378 3.5 16:38:36 10° NNW 16:42:21 71° W 16:46:10 10° S
SL-16 R/B 2.2 16:37:27 10° N 16:43:01 64° ENE 16:48:39 10° SSE
Cosmos 1378 Rocket 3.6 16:41:25 10° N 16:45:48 89° WSW 16:50:17 10° S
Envisat 3.9 16:41:19 10° S 16:46:21 56° WSW 16:51:20 10° NNW
Cosmos 1943 Rocket 4.0 16:43:54 10° SSE 16:46:40 14° SE 16:49:25 10° E
Cosmos 1464 Rocket 4.4 16:40:31 10° SSW 16:46:43 69° W 16:52:48 10° N
Cosmos 1842 3.8 16:44:33 10° NNE 16:48:12 36° E 16:51:53 10° SSE
CZ-2C R/B 4.5 16:49:09 10° ESE 16:51:35 14° E 16:54:01 10° ENE
Hubble Space Telescope 1.7 16:49:33 10° WNW 16:53:26 37° N 16:56:58 12° ENE
CZ-4 R/B 2.6 16:52:01 10° SE 16:55:19 22° E 16:58:36 10° NNE
CZ-2D R/B 4.2 16:52:53 10° SE 16:56:17 27° E 16:59:38 10° NNE
Okean-O 3.5 16:53:44 10° SE 16:57:32 27° E 17:01:17 10° NNE
CZ-4C R/B 3.4 16:54:17 10° SW 16:58:56 37° WNW 17:03:06 10° N
Cosmos 724 4.4 16:55:17 10° NNW 17:01:27 78° ENE 17:07:36 10° SSE
Cosmos 158 Rocket 4.1 16:59:00 10° N 17:03:41 47° ENE 17:08:23 10° SSE
Cosmos 1943 4.5 17:00:02 10° NE 17:03:48 18° E 17:07:36 10° ESE
NOAA 11 4.2 17:03:48 10° SSE 17:09:22 80° ENE 17:14:53 10° N
FengYun 1-2 T 4.3 17:05:13 10° SSE 17:10:48 86° WSW 17:16:20 10° NNW
APEX 3.9 17:09:09 10° SW 17:12:36 44° WNW 17:15:29 10° N
Cosmos 1437 2.5 17:12:26 10° N 17:15:23 60° E 17:18:24 10° SSE
Cosmos 1340 Rocket 2.7 17:13:10 10° S 17:17:08 67° E 17:21:02 10° NNE
COSMOS 2455 3.7 17:12:10 10° SW 17:17:59 51° WNW 17:23:46 10° N
CZ-2C R/B 4.4 17:14:40 13° NE 17:18:19 35° ESE 17:22:41 10° S
Cosmos 1733 3.2 17:15:36 10° S 17:19:33 88° W 17:23:26 10° N
Cosmos 1025 Rocket 4.2 17:19:10 22° E 17:19:33 22° E 17:22:58 10° SE
H-2A ROCKET BODY 3.7 17:18:33 10° WNW 17:23:55 60° NNE 17:41:16 18° E
Okean O Rocket 4.2 17:21:00 10° SSW 17:24:37 24° WSW 17:28:13 10° WNW
OAO 3 Rocket 3.1 17:21:00 10° W 17:25:42 77° S 17:28:23 25° E
Cosmos 2112 Rocket 4.0 17:21:03 10° N 17:26:18 62° ENE 17:31:38 10° SSE
Cosmos 1680 Rocket 3.4 17:22:52 10° N 17:28:10 78° ENE 17:33:33 10° SSE
Okean 2 4.1 17:24:24 10° NNW 17:28:27 57° W 17:32:33 10° S
Cosmos 1603 4.1 17:24:14 10° N 17:29:21 37° ENE 17:34:31 10° SE
H-2A R/B 2.9 17:27:08 10° SE 17:30:51 26° E 17:30:51 26° E
Cosmos 2369 Rocket 3.5 17:29:09 10° S 17:33:20 21° ESE 17:33:56 20° ESE
OAO 2 Rocket 3.7 17:30:45 10° NW 17:35:25 43° NNE 17:37:03 32° ENE
Delta 2 Rocket 4.1 17:30:50 10° W 17:36:36 75° S 17:39:30 28° ESE
CZ-3A R/B 4.4 17:33:18 10° SW 17:39:59 85° NW 18:02:09 10° NE
Cosmos 1939 Rocket 3.7 17:36:09 10° S 17:40:06 54° WSW 17:44:04 10° NNW
Cosmos 2297 3.6 17:34:47 10° SSW 17:40:36 75° ESE 17:44:44 20° NNE
BREEZE-M R/B 3.8 17:35:24 10° SW 17:45:19 49° SSE 17:47:01 33° ESE
Cosmos 1455 Rocket 3.1 17:41:28 10° S 17:45:57 61° E 17:47:38 36° NNE
Atlas Centaur 2 2.8 17:40:51 10° NW 17:46:56 36° NNE 17:48:17 32° NE
In-Cosmos 22 4.3 17:46:34 10° NNE 17:51:58 51° E 17:57:33 10° SSE
SeaSat 1 3.4 17:47:39 10° SSE 17:52:27 49° WSW 17:57:11 10° NW
CZ-2C R/B 4.0 17:49:17 10° NNW 17:54:32 41° W 17:59:45 10° SSW
Cosmos 1900 4.2 17:54:08 10° NNW 17:59:09 78° ENE 18:04:09 10° SSE
USA 305 3.4 17:56:55 10° SSW 18:00:57 45° SE 18:00:57 45° SE
USA 306 3.4 18:01:18 10° SSW 18:05:12 48° SSE 18:05:12 48° SSE
CSL-04 Debris 4.0 18:01:40 10° SSE 18:07:12 75° ENE 18:12:37 10° N
CSL-04 Rocket 3.5 18:03:47 10° SSE 18:09:09 73° ENE 18:14:29 10° N
Lacrosse 5 3.2 18:06:59 10° SSW 18:10:54 27° SSE 18:10:54 27° SSE
Cosmos 1726 4.1 18:07:51 10° S 18:09:06 20° S 18:09:06 20° S
Cosmos 1470 3.3 18:08:34 10° SSW 18:12:34 57° W 18:13:13 49° NW
YAOGAN 1 3.4 18:08:24 10° S 18:12:41 52° WSW 18:16:54 10° NNW
Nadezhda 4 Rocket 3.8 18:11:36 15° N 18:16:51 76° E 18:23:11 10° S
BREEZE-M DEB (TANK) 4.0 18:15:51 10° WNW 18:20:08 61° SSW 18:34:41 10° SE
Meteor 2-10 4.4 18:22:17 10° SSW 18:28:02 70° W 18:29:51 44° NNW
CZ-4 R/B 3.8 18:26:47 10° SSW 18:30:12 24° WSW 18:33:37 10° NW
Cosmos 1943 Rocket 2.2 18:25:19 10° SSW 18:31:02 78° WNW 18:31:26 73° NNW
CZ-2C R/B 3.7 18:27:00 10° S 18:31:39 49° WSW 18:36:24 10° NNW
Cosmos 1953 4.4 18:28:35 10° S 18:30:01 21° S 18:30:01 21° S
EO 1 Delta rocket 4.5 18:31:44 46° NW 18:32:45 55° W 18:37:21 10° SSW
Hubble Space Telescope 2.8 18:30:29 10° WNW 18:32:18 22° WNW 18:32:18 22° WNW
USA 307 4.1 18:30:20 10° SW 18:33:14 41° SW 18:33:14 41° SW
USA 308 4.3 18:33:41 10° SW 18:36:27 38° SW 18:36:27 38° SW
ATLAS 5 CENTAUR R/B 3.1 18:35:38 10° SSW 18:38:49 34° S 18:38:49 34° S
USA 215 3.1 18:44:56 81° ESE 18:45:18 88° NE 18:51:54 10° NW
ARGOS 3.9 18:41:39 10° S 18:45:27 46° S 18:45:27 46° S
Cosmos 1943 4.0 18:41:49 10° NW 18:47:21 50° WSW 18:52:56 10° S
H-2A R/B 3.8 19:06:24 10° SSW 19:10:37 28° WSW 19:11:30 26° W
Cosmos 2369 Rocket 3.6 19:12:11 10° SSW 19:15:47 35° WSW 19:15:47 35° WSW
